Location: Riverside Cemetery
(38.3047°N, 99.7773°W)
Time: 11:01:38
(UTC+00:00)

BREEZE-M DEB (TANK) - Pass Details

Date: 19 September 2020
Orbit: 289 x 20474 km, 49.2° (Epoch: 25 October)

Event Time Altitude Azimuth Distance (km) Brightness Sun altitude
Rises 02:05:53 0° 308° (NW) 2,280 7.3 -17.2°
Reaches altitude 10° 02:07:57 10° 317° (NW) 1,177 5.4 -17.6°
Enters shadow 02:09:32 35° 359° (N) 492 2.7 -17.9°
